Location: Huesca
(42.1318°N, 0.4078°W)
Time: 08:57:08
(UTC+02:00)

Altair - Pass Details

Date: 19 July 2024
Orbit: 1502 x 1682 km, 47.2° (Epoch: 17 July)

Event Time Altitude Azimuth Distance (km) Brightness Sun altitude
Rises 04:31:37 0° 291° (WNW) 4,642 9.9 -18.9°
Reaches altitude 10° 04:35:34 10° 276° (W) 3,668 9.2 -18.5°
Enters shadow 04:40:25 20° 244° (WSW) 2,975 8.5 -17.9°
Maximum altitude 04:41:49 21° 233° (SW) 2,938 - -17.8°
Drops below altitude 10° 04:48:11 10° 189° (S) 3,727 - -17.0°
Sets 04:52:18 0° 174° (S) 4,738 - -16.6°
